THORAD AGENA D DEB, 42543

Orbit data source: Space-Track

THORAD AGENA D DEB, 42543 is space debris in SSO originally from a launch on Wed, 08 Apr 1970 UTC launched from the Air Force Western Test Range (AFWTR). Debris objects in space refer to the collection of defunct objects orbiting the Earth. Examples of debris include non-operational satellites, rocket bodies, and fragments generated from explosions, collisions, or faulty payload assembly.

Loading next visibility...
Identifier
42543, 1970-025SZ
Orbit
SSO
Country
Flag of USUS
Related business
Manufacturer
Unknown
Mission
Spacecraft
Bus & Motor
Unknown
Mass
Unknown
Launch date (UTC)
1970-04-08 (56 years ago)
Launch vehicle
Unknown
Launch site
Air Force Western Test Range (AFWTR)
Object type
Payload
Rocket body
Debris
Shape & HBR
Unknown shape, 0.1 m
Radar Cross Section
Small (<0.1 m²)

Expand to show TLE details & history
Last TLE update: 1 day ago

TLE from 1 day ago
0 THORAD AGENA D DEB
1 42543U 70025SZ  25300.27372039  .00000741  00000-0  15822-2 0  9997
2 42543  99.7959 321.3064 0181168 178.1684 182.0139 13.27777598577275
Epoch: 2025-10-27T06:34Z
TLE epoch observation values (Epoch: 2025-10-27T06:34:09.441Z)
Latitude
-0.00004°
Longitude
-173.11085°
Altitude
1,294.333 km
Speed
7.144 km/s
True Right ascension
21h 25m 13s
True Declination
0° 00' 00"
Sunlit
Object was in daylight at epoch
Visualization orbit readout
Latitude
Unknown
Longitude
Unknown
Altitude
Unknown
Speed
Unknown
Apparent Right ascension
Unknown
Apparent Declination
Unknown
Sunlit
N/A
Visualization observer readout
Local Sidereal Time
05:13:32
Azimuth
Unknown
Elevation
Unknown
Doppler factor
Unknown
Orbital elements
Apogee altitude
1,288.923 km
Perigee altitude
1,016.061 km
Semi-major axis
7,530.629 km
Eccentricity
0.01812
Inclination
99.7959°
RAAN
321.3064°
Arg. of periapsis
178.1684°
True anomaly
181.94256°
Mean anomaly
182.0139°
Eccentric anomaly
181.97807°
Mean motion
3.32121 °/min
Orbital period
108.39 mins
BSTAR
0.0015822
Loading maneuver chart data...
Computing Atmospheric mass density...

Documentation

Showing up to 5 results
|